#timestamp,LO_Frequency,Hit 
1497639615.3,286046997.7,N
1497639635.2,286046997.1,N
1497639655.9,286046996.8,N
1497639675.7,286046997.3,N
1497639695.6,286046995.1,N
1497639715.4,286046996.6,N
1497639735.2,286046999.2,N
1497639755.1,286046996.6,N
1497639756.0,286046996.6,N
1497639775.8,286046996.9,N
1497639795.7,286046999.3,N
1497639815.5,286046998.3,N
1497639835.3,286046998.1,N
1497639855.2,286047000.9,N
1497639875.0,286046998.5,N
1497639875.9,286046998.5,N
1497639895.7,286047001.2,N
1497639915.6,286046998.5,N
1497639935.4,286046999.6,N
1497639955.3,286046998.9,N
1497639975.1,286046998.9,N
1497639976.0,286046998.9,N
1497639995.8,286046998.4,N
1497640015.7,286046998.2,N
1497640035.5,286047000.0,N
1497640055.3,286046999.7,N
1497640075.2,286047002.4,N
1497640095.0,286047000.5,N
1497640095.9,286047000.5,N
1497640115.8,286047000.1,N
1497640135.6,286047000.1,N
1497640155.4,286047002.7,N
1497640175.3,286047001.5,N
1497640195.1,286047002.5,N
1497640215.9,286047002.7,N
1497640235.7,286047000.2,N
1497640255.5,286046999.8,N
1497640275.4,286047001.1,N
1497640295.2,286046996.5,N
1497640315.1,286046999.3,N
1497640316.0,286046999.3,N
1497640335.8,286046999.6,N
1497640355.6,286046999.1,N
1497640375.5,286046998.8,N
1497640395.3,286046998.7,N
1497640415.1,286047000.9,N
1497640435.9,286047000.8,N
1497640455.7,286047000.5,N
1497640475.6,286046999.9,N
1497640495.4,286047002.6,N
1497640515.2,286047000.2,N
1497640535.1,286047000.6,N
1497640536.0,286047000.6,N
1497640555.8,286047000.1,N
1497640575.6,286046998.5,N
1497640595.5,286047000.9,N
1497640615.3,286047000.0,N
1497640635.2,286047002.5,N
1497640655.9,286047002.2,N
1497640675.7,286047002.4,N
1497640695.6,286047000.2,N
1497640715.4,286047000.5,N
1497640735.2,286047000.7,N
1497640755.1,286047000.2,N
1497640756.0,286047000.2,N
1497640775.8,286047000.1,N
1497640795.7,286047002.2,N
1497640815.5,286046999.7,N
1497640835.3,286046999.9,N
1497640855.2,286047000.2,N
1497640875.0,286046999.9,N
1497640875.9,286046999.9,N
1497640895.7,286046999.7,N
1497640915.6,286046999.7,N
1497640935.4,286046999.8,N
1497640955.3,286047000.9,N
1497640975.1,286047000.5,N
1497640976.0,286047000.5,N
1497640995.8,286047000.2,N
1497641015.7,286047002.8,N
1497641035.5,286047000.2,N
1497641055.3,286047000.1,N
1497641075.2,286047000.9,N
1497641095.0,286047001.0,N
1497641095.9,286047001.0,N
1497641115.8,286047000.6,N
1497641135.6,286047002.6,N
1497641155.4,286047002.3,N
1497641175.3,286047000.7,N
1497641195.1,286046998.1,N
1497641215.8,286047000.5,N
1497641235.7,286046999.9,N
1497641255.5,286046999.8,N
1497641275.4,286047001.0,N
1497641295.2,286047001.1,N
1497641315.0,286046998.2,N
1497641315.9,286046998.2,N
1497641335.8,286047001.2,N
1497641355.6,286047000.7,N
1497641375.4,286046998.6,N
1497641395.3,286046998.1,N
1497641415.1,286047000.7,N
1497641435.9,286047000.7,N
1497641455.7,286047000.4,N
1497641475.5,286046999.8,N
1497641495.4,286046998.5,N
1497641515.2,286046998.4,N
1497641535.0,286047000.6,N
1497641535.9,286047000.6,N
1497641555.8,286047000.7,N
1497641575.6,286047001.1,N
1497641595.5,286047001.2,N
1497641615.3,286047000.7,N
1497641635.1,286046998.1,N
1497641655.9,286047000.7,N
1497641675.7,286047000.7,N
1497641695.5,286047000.8,N
1497641715.4,286047000.0,N
1497641735.2,286047000.2,N
1497641755.1,286047002.1,N
1497641756.0,286047002.1,N
1497641775.8,286047002.1,N
1497641795.6,286047002.4,N
1497641815.5,286046999.8,N
1497641835.3,286046998.2,N
1497641855.1,286047000.1,N
1497641875.9,286047002.6,N
1497641895.7,286047002.0,N
1497641915.6,286047002.2,N
1497641935.4,286047001.6,N
1497641955.2,286047002.4,N
1497641975.1,286047001.7,N
1497641976.0,286047001.7,N
1497641995.8,286047000.0,N
1497642015.6,286047000.3,N
1497642035.5,286047000.6,N
1497642055.3,286046999.8,N
1497642075.2,286047000.0,N
1497642095.9,286047002.5,N
1497642115.7,286047002.4,N
1497642135.6,286047002.3,N
1497642155.4,286047002.1,N
1497642175.2,286047002.4,N
1497642195.1,286047002.6,N
1497642196.0,286047002.6,N
1497642215.8,286047001.7,N
1497642235.7,286047003.7,N
1497642255.5,286047003.8,N
1497642275.3,286047002.0,N
1497642295.2,286047002.7,N
1497642315.0,286047000.5,N
1497642315.9,286047000.5,N
1497642335.7,286046998.1,N
1497642355.6,286047000.3,N
1497642375.4,286047000.9,N
1497642395.3,286046998.1,N
1497642415.1,286047001.0,N
1497642416.0,286047001.0,N
1497642435.8,286047000.6,N
1497642455.7,286046998.6,N
1497642475.5,286047000.8,N
1497642495.4,286047000.9,N
1497642515.2,286047000.6,N
1497642535.0,286047000.6,N
1497642535.9,286047000.6,N
1497642555.8,286047000.4,N
1497642575.6,286046998.3,N
1497642595.4,286047001.2,N
1497642615.3,286046998.5,N
1497642635.1,286047001.0,N
1497642655.9,286047000.2,N
1497642675.7,286047000.1,N
1497642695.5,286047000.2,N
1497642715.4,286047000.2,N
1497642735.2,286047002.8,N
1497642755.0,286046999.8,N
1497642755.9,286046999.8,N
1497642775.8,286047002.0,N
1497642795.6,286047001.4,N
1497642815.5,286047002.0,N
1497642835.3,286047001.3,N
1497642855.1,286047001.3,N
1497642875.9,286047001.4,N
1497642895.7,286047002.2,N
1497642915.5,286046999.8,N
1497642935.4,286047000.5,N
1497642955.2,286047002.8,N
1497642975.0,286047001.9,N
1497642976.0,286047001.9,N
1497642995.8,286047001.4,N
1497643015.6,286047002.7,N
1497643035.5,286047002.1,N
1497643055.3,286047001.9,N
1497643075.1,286047001.8,N
1497643095.9,286047001.8,N
1497643115.7,286047002.3,N
1497643135.5,286047001.7,N
1497643155.4,286047003.9,N
1497643175.2,286047003.8,N
1497643195.1,286047004.0,N
1497643196.0,286047004.0,N
